Skip Page Navigation
NASA JPL Caltech
NASA Logo - Jet Propulsion Laboratory + View the NASA Portal
+ Center for Near-Earth Object Studies
JPL Home Earth Solar System Stars & Galaxies Technology
JPL Solar System Dynamics
BODIES ORBITS EPHEMERIDES TOOLS PHYSICAL DATA DISCOVERY FAQ SITE MAP
JPL Small-Body Database Browser
Search: [ help ]  
187571 (2006 VV123)
Classification: Main-belt Asteroid          SPK-ID: 2187571
Ephemeris | Orbit Diagram | Orbital Elements | Mission Design | Physical Parameters | Discovery Circumstances | Close-Approach Data ]

[ show orbit diagram ]
Orbital Elements at Epoch 2459200.5 (2020-Dec-17.0) TDB
Reference: JPL 21 (heliocentric ecliptic J2000)
 Element Value Uncertainty (1-sigma)   Units 
e .2168625666756562 3.9236e-08  
a 2.683740658569707 1.3713e-08 au
q 2.101737771060464 1.0796e-07 au
i 1.257193258291702 4.6262e-06 deg
node 321.511471571237 0.00019966 deg
peri 240.1096964940504 0.00019994 deg
M 314.8522935271927 1.0149e-05 deg
tp 2459401.892103287933
(2021-Jul-06.39210329)
4.5676e-05 TDB
period 1605.865786943659
4.40
1.2308e-05
3.37e-08
d
yr
n .2241781367577205 1.7182e-09 deg/d
Q 3.265743546078949 1.6687e-08 au
  Orbit Determination Parameters
   # obs. used (total)      446  
   data-arc span      8954 days (24.51 yr)  
   first obs. used      1996-09-08  
   last obs. used      2021-03-15  
   planetary ephem.      DE441  
   SB-pert. ephem.      SB441-N16  
   condition code      0  
   norm. resid. RMS      .5108  
   source      ORB  
   producer      Otto Matic  
   solution date      2021-Apr-13 21:55:57  

Additional Information
 Earth MOID = 1.09841 au 
 Jupiter MOID = 1.69806 au 
 T_jup = 3.341 
[ show covariance matrix ]

Ephemeris | Orbit Diagram | Orbital Elements | Mission Design | Physical Parameters | Discovery Circumstances | Close-Approach Data ]

Physical Parameter Table
Parameter Symbol Value Units Sigma Reference Notes
absolute magnitude H 16.3   n/a MPO418011  

187571 (2006 VV123)          Discovered 2006-Nov-14 by Spacewatch at Kitt Peak
Reference: 20080520/Numbers.arcLast Updated: 2008-05-22

[ show close-approach data ]
Alternate Designations
 2006 VV123 = 1996 RK12 = 2008 EA90 
Ephemeris | Orbit Diagram | Orbital Elements | Mission Design | Physical Parameters | Discovery Circumstances | Close-Approach Data ]
ABOUT SSD CREDITS/AWARDS PRIVACY/COPYRIGHT GLOSSARY LINKS
FirstGov 2021-Apr-17 03:39 UT
(server date/time)  
NASA Home Page
Site Manager:   Ryan S. Park
Webmaster  Alan B. Chamberlin